Location: Hannover
(52.3723°N, 9.7339°E)
Time: 22:21:14
(UTC+01:00)

ISS - Pass Details

Date: 12 November 2017
Orbit: 401 x 407 km, 51.6° (Epoch: 18 November)

Event Time Altitude Azimuth Distance (km) Brightness Sun altitude
Exits shadow 04:20:13 13° 93° (E) 1,270 -0.5 -29.9°
Drops below altitude 10° 04:20:41 10° 93° (E) 1,457 -0.1 -29.8°
Sets 04:22:46 0° 92° (E) 2,316 1.2 -29.5°
